Location: Meanaryar
(48.4161°N, 4.7315°W)
Time: 09:34:41
(UTC+00:00)

Cosmos 1092 Rocket - Pass Details

Date: 21 January 2021
Orbit: 954 x 995 km, 83.0° (Epoch: 02 March)

Event Time Altitude Azimuth Distance (km) Brightness Sun altitude
Rises 20:49:07 0° 232° (SW) 3,654 7.5 -37.4°
Reaches altitude 10° 20:52:16 10° 247° (WSW) 2,705 6.8 -37.9°
Maximum altitude 20:56:54 22° 296° (WNW) 1,985 6.1 -38.7°
Drops below altitude 10° 21:01:33 10° 345° (NNW) 2,701 6.6 -39.4°
Sets 21:04:43 0° 1° (N) 3,648 7.2 -39.9°
